Terug naar catalogus

STARLINK-3726

ActiefCommunicatieVLEO
NORAD 52122·PAYLOAD·🇺🇸 United States

Gelanceerd Mar 19, 2022 vanaf Cape Canaveral Space Force Station

Loading…

Volgende Passages (komende 24 uur)

TLE

VersSource: CelesTrak SupGP

Epoch: Sep 15, 2026, 02:24 UTC

1 52122C 22029AL  26258.10048611  .00008416  00000+0  25542-3 0  2588
2 52122  53.1566 295.1281 0000975  89.7155 130.0875 15.33540533    11

Volg STARLINK-3726 in realtime met AllMySat

Download on the App Store